GALAXY 37 (G-37)

Last updated on Wed Nov 05 2025 00:02:51 GMT+0000 (Coordinated Universal Time)

1 57493U 23112A 25308.30656068 .00000060 00000+0 00000+0 0 9993 2 57493 0.0203 279.9885 0002367 313.1349 154.0728 1.00273667 8282
UTC large
Height (km)
Speed (km/s)
/
Latitude / Longitude
Inclination (degrees)
Orbital Period (minutes)
Azimuth
Elevation
Range (km)
Doppler Factor

Next 0 passes for location: London (51.5072 / 0.1276)

Sorry there are no passes over London.